Precipitable_Water
0.80 0.79 0.85 0.87 0.90 0.88 0.86 0.88 0.89 0.92 0.93 0.89 0.84 0.86 0.92 0.92 0.94 0.96 1.04 1.09 1.12 1.14 1.18 1.14 1.12 1.18 1.20 1.23 1.25 1.23 1.20 1.18 1.15 1.08 1.06 1.08 0.99 1.01 1.14 1.10 1.07 1.05 1.03 0.96 0.89 0.79 0.73 0.68 0.76 0.93 0.97 0.96 0.96 0.96 0.98 0.97 0.97 0.96 0.94 0.92 0.89 0.83 0.74
0.79 0.83 0.89 0.89 0.86 0.87 0.83 0.88 0.89 0.90 0.93 0.92 0.86 0.82 0.80 0.85 0.89 0.89 0.91 0.94 1.00 1.07 1.12 1.14 1.13 1.15 1.11 1.12 1.16 1.16 1.12 1.14 1.15 1.16 1.13 1.05 1.04 1.03 1.03 1.03 1.04 0.98 0.97 0.93 0.89 0.85 0.75 0.70 0.73 0.76 0.78 0.88 0.90 0.93 0.94 0.93 0.92 0.93 0.87 0.79 0.73 0.69 0.67
0.79 0.83 0.84 0.81 0.82 0.84 0.82 0.88 0.90 0.90 0.90 0.90 0.88 0.85 0.86 0.82 0.76 0.77 0.77 0.81 0.86 0.96 1.03 1.06 1.10 1.10 1.09 1.10 1.10 1.11 1.10 1.07 1.13 1.14 1.09 1.06 1.07 1.08 1.05 1.03 0.94 0.92 0.90 0.85 0.83 0.81 0.80 0.79 0.70 0.73 0.75 0.73 0.67 0.75 0.87 0.81 0.77 0.76 0.72 0.63 0.55 0.52 0.53
0.77 0.78 0.78 0.78 0.79 0.80 0.82 0.86 0.87 0.89 0.92 0.91 0.94 0.90 0.90 0.89 0.80 0.75 0.71 0.75 0.79 0.84 0.88 0.93 0.99 1.07 1.09 1.08 1.11 1.12 1.10 1.07 1.07 1.08 1.09 1.11 1.10 1.07 1.05 1.03 0.93 0.87 0.82 0.76 0.76 0.78 0.78 0.75 0.74 0.73 0.74 0.72 0.62 0.60 0.72 0.75 0.71 0.64 0.60 0.54 0.48 0.45 0.46
0.77 0.74 0.73 0.72 0.75 0.77 0.81 0.82 0.86 0.88 0.88 0.91 0.95 0.91 0.88 0.88 0.85 0.79 0.77 0.77 0.80 0.85 0.88 0.89 0.89 0.94 1.00 1.01 1.02 1.05 1.08 1.09 1.07 1.05 1.03 1.00 1.03 1.04 1.04 1.03 0.97 0.93 0.91 0.87 0.86 0.84 0.80 0.77 0.71 0.67 0.67 0.66 0.63 0.60 0.65 0.68 0.66 0.58 0.53 0.49 0.46 0.43 0.40
0.79 0.72 0.70 0.70 0.76 0.78 0.82 0.83 0.85 0.86 0.89 0.88 0.90 0.89 0.88 0.84 0.83 0.81 0.78 0.81 0.85 0.92 0.91 0.88 0.90 0.90 0.91 0.93 1.02 1.07 1.10 1.06 1.01 0.95 0.92 0.93 0.98 0.97 0.97 1.01 0.97 0.94 0.96 0.98 0.94 0.89 0.82 0.74 0.67 0.60 0.59 0.57 0.48 0.49 0.58 0.57 0.49 0.54 0.53 0.49 0.47 0.46 0.43
0.77 0.72 0.71 0.73 0.79 0.84 0.86 0.87 0.87 0.89 0.89 0.89 0.88 0.84 0.88 0.84 0.81 0.81 0.81 0.83 0.89 0.90 0.87 0.86 0.87 0.91 0.94 0.99 1.04 1.03 1.00 0.97 0.91 0.86 0.87 0.90 0.94 0.97 0.99 0.94 0.95 0.97 0.98 1.00 0.95 0.86 0.75 0.66 0.60 0.55 0.54 0.57 0.54 0.47 0.51 0.50 0.49 0.44 0.46 0.50 0.51 0.49 0.48
0.79 0.75 0.77 0.81 0.82 0.84 0.89 0.91 0.93 0.94 0.91 0.91 0.91 0.89 0.88 0.84 0.82 0.80 0.80 0.81 0.82 0.84 0.85 0.85 0.89 0.93 0.96 0.99 1.00 0.94 0.88 0.87 0.86 0.85 0.84 0.85 0.87 0.91 0.94 0.92 0.93 0.94 0.94 0.95 0.94 0.88 0.79 0.69 0.63 0.59 0.55 0.48 0.47 0.46 0.41 0.45 0.42 0.41 0.40 0.48 0.53 0.51 0.52
0.82 0.84 0.87 0.87 0.87 0.89 0.93 0.94 0.93 0.92 0.92 0.92 0.94 0.91 0.86 0.83 0.81 0.79 0.78 0.77 0.78 0.81 0.85 0.87 0.90 0.92 0.95 0.94 0.91 0.89 0.85 0.85 0.81 0.79 0.78 0.80 0.81 0.85 0.84 0.81 0.76 0.74 0.78 0.81 0.88 0.89 0.83 0.71 0.66 0.64 0.58 0.46 0.36 0.31 0.36 0.36 0.36 0.37 0.46 0.44 0.51 0.55 0.53
0.83 0.84 0.86 0.86 0.86 0.90 0.92 0.93 0.90 0.87 0.89 0.91 0.90 0.91 0.85 0.81 0.78 0.75 0.72 0.74 0.76 0.80 0.82 0.88 0.90 0.90 0.92 0.92 0.89 0.86 0.80 0.78 0.75 0.73 0.74 0.75 0.76 0.77 0.75 0.72 0.71 0.73 0.76 0.80 0.85 0.86 0.81 0.71 0.65 0.58 0.49 0.41 0.35 0.31 0.27 0.28 0.31 0.34 0.43 0.49 0.45 0.52 0.54
0.86 0.88 0.89 0.87 0.87 0.89 0.91 0.92 0.91 0.87 0.84 0.84 0.83 0.85 0.81 0.76 0.73 0.71 0.68 0.70 0.73 0.76 0.77 0.81 0.86 0.88 0.89 0.88 0.86 0.82 0.79 0.78 0.75 0.74 0.73 0.74 0.75 0.76 0.75 0.73 0.72 0.71 0.74 0.75 0.79 0.81 0.77 0.68 0.58 0.51 0.47 0.44 0.39 0.34 0.30 0.28 0.31 0.39 0.42 0.49 0.50 0.50 0.55
0.88 0.90 0.91 0.89 0.90 0.89 0.91 0.92 0.90 0.88 0.86 0.83 0.75 0.70 0.68 0.67 0.65 0.63 0.65 0.67 0.68 0.71 0.73 0.75 0.81 0.83 0.83 0.83 0.83 0.80 0.78 0.76 0.72 0.69 0.69 0.68 0.69 0.70 0.70 0.70 0.71 0.69 0.70 0.69 0.69 0.70 0.71 0.66 0.57 0.52 0.49 0.46 0.42 0.39 0.36 0.37 0.33 0.42 0.47 0.44 0.49 0.54 0.52
0.90 0.90 0.89 0.89 0.89 0.88 0.89 0.89 0.89 0.85 0.81 0.79 0.71 0.62 0.61 0.62 0.62 0.61 0.63 0.65 0.65 0.66 0.67 0.71 0.74 0.75 0.77 0.79 0.78 0.78 0.77 0.75 0.72 0.68 0.67 0.67 0.66 0.65 0.66 0.68 0.68 0.66 0.66 0.64 0.63 0.64 0.64 0.64 0.62 0.58 0.54 0.50 0.46 0.45 0.43 0.41 0.41 0.42 0.51 0.47 0.49 0.53 0.54
0.91 0.92 0.90 0.89 0.87 0.85 0.84 0.86 0.86 0.81 0.78 0.73 0.74 0.62 0.59 0.62 0.60 0.58 0.58 0.60 0.61 0.63 0.65 0.67 0.69 0.70 0.69 0.66 0.65 0.68 0.70 0.70 0.69 0.66 0.64 0.59 0.58 0.56 0.57 0.59 0.60 0.61 0.63 0.59 0.60 0.62 0.62 0.62 0.61 0.60 0.59 0.55 0.53 0.51 0.48 0.48 0.46 0.46 0.51 0.55 0.51 0.49 0.51
0.92 0.92 0.89 0.88 0.83 0.79 0.81 0.85 0.85 0.82 0.73 0.71 0.73 0.61 0.56 0.56 0.52 0.51 0.52 0.53 0.57 0.59 0.61 0.65 0.67 0.66 0.63 0.55 0.51 0.53 0.56 0.57 0.56 0.52 0.48 0.44 0.45 0.44 0.45 0.47 0.50 0.55 0.59 0.57 0.58 0.58 0.59 0.60 0.60 0.58 0.60 0.59 0.55 0.52 0.54 0.53 0.52 0.50 0.49 0.53 0.49 0.51 0.50
0.92 0.91 0.88 0.86 0.80 0.77 0.80 0.83 0.83 0.76 0.70 0.66 0.67 0.60 0.56 0.53 0.47 0.47 0.49 0.50 0.52 0.54 0.57 0.59 0.60 0.58 0.54 0.48 0.44 0.46 0.51 0.50 0.48 0.47 0.48 0.49 0.50 0.50 0.46 0.45 0.49 0.54 0.58 0.56 0.56 0.57 0.59 0.60 0.62 0.60 0.60 0.63 0.60 0.60 0.63 0.63 0.58 0.53 0.51 0.50 0.52 0.51 0.52
0.93 0.92 0.88 0.86 0.77 0.78 0.80 0.81 0.80 0.72 0.66 0.66 0.67 0.65 0.62 0.54 0.47 0.46 0.46 0.48 0.49 0.49 0.49 0.49 0.48 0.48 0.46 0.45 0.46 0.48 0.52 0.56 0.57 0.57 0.56 0.57 0.57 0.57 0.55 0.52 0.53 0.56 0.57 0.56 0.57 0.59 0.63 0.64 0.64 0.64 0.64 0.66 0.66 0.66 0.68 0.67 0.65 0.60 0.57 0.53 0.55 0.53 0.54
0.93 0.93 0.91 0.86 0.75 0.78 0.81 0.81 0.75 0.67 0.66 0.67 0.69 0.67 0.65 0.55 0.50 0.51 0.50 0.48 0.49 0.49 0.49 0.48 0.49 0.50 0.52 0.54 0.56 0.59 0.62 0.63 0.62 0.62 0.61 0.61 0.61 0.61 0.60 0.60 0.59 0.60 0.60 0.58 0.59 0.62 0.65 0.65 0.67 0.68 0.67 0.68 0.68 0.68 0.68 0.68 0.67 0.64 0.60 0.57 0.56 0.57 0.58
0.95 0.95 0.92 0.82 0.74 0.78 0.81 0.81 0.72 0.66 0.66 0.67 0.70 0.70 0.67 0.61 0.52 0.53 0.56 0.54 0.53 0.55 0.55 0.53 0.54 0.55 0.57 0.60 0.61 0.62 0.64 0.64 0.63 0.62 0.61 0.62 0.63 0.63 0.61 0.62 0.63 0.64 0.64 0.63 0.63 0.66 0.68 0.68 0.69 0.69 0.69 0.70 0.71 0.71 0.69 0.70 0.70 0.68 0.65 0.63 0.61 0.59 0.61
0.98 0.93 0.84 0.75 0.78 0.83 0.84 0.79 0.71 0.68 0.70 0.72 0.72 0.71 0.70 0.66 0.60 0.55 0.57 0.60 0.61 0.61 0.59 0.56 0.56 0.59 0.61 0.62 0.63 0.63 0.63 0.64 0.63 0.63 0.62 0.62 0.62 0.63 0.62 0.60 0.61 0.64 0.65 0.66 0.66 0.66 0.67 0.68 0.69 0.68 0.69 0.70 0.72 0.72 0.71 0.71 0.71 0.70 0.68 0.66 0.65 0.65 0.64
1.03 0.96 0.90 0.90 0.92 0.94 0.89 0.75 0.68 0.70 0.75 0.76 0.76 0.76 0.71 0.66 0.68 0.60 0.58 0.59 0.63 0.64 0.64 0.60 0.58 0.61 0.63 0.63 0.64 0.65 0.64 0.63 0.63 0.64 0.64 0.64 0.64 0.63 0.63 0.63 0.63 0.63 0.65 0.69 0.72 0.74 0.73 0.72 0.74 0.73 0.75 0.74 0.74 0.73 0.72 0.73 0.73 0.73 0.71 0.70 0.67 0.66 0.68
1.10 1.05 1.00 0.98 0.97 0.95 0.91 0.82 0.72 0.76 0.79 0.81 0.83 0.81 0.76 0.71 0.67 0.63 0.61 0.59 0.61 0.64 0.63 0.62 0.61 0.59 0.61 0.63 0.63 0.63 0.64 0.64 0.64 0.63 0.63 0.64 0.65 0.66 0.67 0.68 0.68 0.70 0.72 0.74 0.76 0.78 0.79 0.78 0.75 0.74 0.77 0.79 0.78 0.77 0.76 0.77 0.76 0.74 0.74 0.73 0.72 0.74 0.73
1.04 1.05 1.06 0.99 0.96 0.95 0.93 0.93 0.91 0.88 0.87 0.88 0.88 0.86 0.78 0.73 0.70 0.63 0.60 0.60 0.60 0.61 0.62 0.63 0.64 0.63 0.63 0.62 0.62 0.62 0.63 0.64 0.65 0.66 0.65 0.64 0.65 0.68 0.69 0.70 0.72 0.76 0.81 0.84 0.84 0.84 0.83 0.82 0.82 0.81 0.81 0.81 0.81 0.79 0.78 0.77 0.77 0.77 0.76 0.75 0.76 0.77 0.76
1.04 1.00 1.08 1.05 0.99 0.97 0.96 0.96 0.95 0.92 0.90 0.89 0.87 0.86 0.82 0.76 0.75 0.70 0.65 0.63 0.60 0.59 0.60 0.62 0.64 0.66 0.66 0.66 0.66 0.65 0.64 0.63 0.65 0.68 0.68 0.66 0.65 0.67 0.70 0.73 0.75 0.79 0.82 0.84 0.84 0.84 0.84 0.85 0.86 0.86 0.87 0.87 0.86 0.82 0.78 0.76 0.76 0.77 0.76 0.76 0.79 0.80 0.78
1.11 1.08 1.10 1.08 1.05 1.01 1.00 0.98 0.96 0.95 0.93 0.91 0.91 0.90 0.83 0.81 0.82 0.80 0.75 0.73 0.72 0.71 0.69 0.68 0.66 0.65 0.65 0.66 0.68 0.68 0.68 0.66 0.65 0.66 0.68 0.69 0.70 0.71 0.71 0.74 0.77 0.81 0.83 0.85 0.85 0.85 0.85 0.85 0.86 0.88 0.88 0.88 0.87 0.87 0.85 0.80 0.77 0.77 0.78 0.76 0.77 0.79 0.79
1.03 1.05 1.06 1.04 1.03 1.01 0.99 0.99 0.99 0.97 0.95 0.96 0.95 0.92 0.92 0.90 0.88 0.90 0.88 0.83 0.79 0.79 0.78 0.79 0.78 0.76 0.74 0.74 0.75 0.76 0.75 0.72 0.70 0.68 0.68 0.69 0.71 0.74 0.77 0.80 0.81 0.83 0.84 0.86 0.86 0.86 0.86 0.86 0.85 0.84 0.84 0.83 0.83 0.83 0.82 0.82 0.83 0.81 0.80 0.78 0.75 0.74 0.75
0.88 0.90 0.93 0.94 0.93 0.92 0.92 0.94 0.98 1.01 1.02 1.01 0.97 0.97 0.97 0.95 0.95 0.93 0.92 0.90 0.88 0.87 0.85 0.85 0.83 0.82 0.80 0.79 0.79 0.79 0.80 0.81 0.81 0.81 0.81 0.80 0.80 0.80 0.81 0.82 0.84 0.86 0.90 0.93 0.94 0.94 0.93 0.91 0.88 0.85 0.83 0.83 0.82 0.83 0.83 0.82 0.83 0.85 0.86 0.83 0.80 0.76 0.79
0.81 0.82 0.83 0.84 0.85 0.84 0.83 0.83 0.85 0.88 0.90 0.92 0.93 0.93 0.94 0.94 0.96 0.97 0.97 0.98 0.95 0.93 0.94 0.93 0.89 0.87 0.84 0.81 0.79 0.78 0.78 0.80 0.81 0.81 0.82 0.82 0.83 0.84 0.84 0.85 0.84 0.85 0.88 0.92 0.96 0.98 0.97 0.95 0.91 0.89 0.86 0.83 0.83 0.84 0.85 0.85 0.84 0.84 0.84 0.85 0.85 0.84 0.83
0.76 0.77 0.77 0.78 0.77 0.76 0.76 0.76 0.77 0.79 0.78 0.79 0.80 0.82 0.85 0.88 0.89 0.91 0.95 0.97 0.97 0.95 0.96 0.95 0.94 0.93 0.92 0.90 0.87 0.83 0.79 0.77 0.77 0.79 0.82 0.85 0.85 0.85 0.86 0.86 0.86 0.86 0.87 0.88 0.95 0.96 0.95 0.95 0.93 0.92 0.87 0.83 0.83 0.85 0.85 0.85 0.86 0.85 0.82 0.81 0.81 0.81 0.80
0.73 0.73 0.74 0.73 0.73 0.72 0.71 0.70 0.70 0.72 0.70 0.70 0.69 0.70 0.71 0.73 0.76 0.78 0.81 0.86 0.86 0.87 0.90 0.94 0.94 0.94 0.93 0.93 0.92 0.90 0.89 0.85 0.86 0.87 0.87 0.89 0.89 0.88 0.87 0.86 0.89 0.88 0.92 0.90 0.88 0.88 0.91 0.93 0.93 0.91 0.87 0.84 0.83 0.83 0.84 0.87 0.87 0.83 0.79 0.77 0.76 0.75 0.70
0.69 0.69 0.70 0.69 0.67 0.66 0.65 0.65 0.65 0.67 0.66 0.66 0.65 0.64 0.65 0.65 0.67 0.69 0.71 0.73 0.78 0.81 0.84 0.88 0.90 0.89 0.89 0.90 0.90 0.88 0.88 0.88 0.90 0.89 0.91 0.95 0.96 0.94 0.90 0.87 0.89 0.90 0.86 0.89 0.88 0.88 0.90 0.89 0.85 0.84 0.81 0.76 0.74 0.74 0.76 0.80 0.82 0.82 0.79 0.71 0.67 0.65 0.66
0.63 0.63 0.63 0.61 0.60 0.59 0.60 0.61 0.62 0.63 0.63 0.63 0.63 0.64 0.64 0.64 0.64 0.65 0.66 0.67 0.68 0.70 0.73 0.80 0.86 0.88 0.89 0.88 0.87 0.86 0.84 0.82 0.81 0.83 0.84 0.85 0.88 0.88 0.89 0.89 0.87 0.85 0.85 0.88 0.89 0.88 0.89 0.88 0.85 0.83 0.81 0.77 0.75 0.77 0.79 0.82 0.81 0.76 0.69 0.62 0.60 0.61 0.59
0.63 0.61 0.60 0.59 0.58 0.58 0.58 0.58 0.57 0.57 0.58 0.58 0.58 0.59 0.59 0.58 0.57 0.59 0.62 0.64 0.66 0.67 0.67 0.71 0.78 0.84 0.85 0.86 0.87 0.85 0.83 0.78 0.74 0.75 0.77 0.77 0.77 0.79 0.81 0.81 0.81 0.83 0.84 0.86 0.88 0.88 0.87 0.86 0.83 0.83 0.81 0.77 0.77 0.79 0.80 0.82 0.78 0.71 0.64 0.60 0.58 0.57 0.55
0.63 0.64 0.64 0.62 0.61 0.60 0.59 0.58 0.57 0.56 0.54 0.55 0.54 0.54 0.54 0.55 0.56 0.56 0.58 0.58 0.59 0.60 0.62 0.62 0.65 0.69 0.74 0.77 0.79 0.80 0.79 0.77 0.76 0.75 0.74 0.72 0.72 0.72 0.75 0.78 0.82 0.84 0.86 0.88 0.88 0.87 0.86 0.88 0.89 0.87 0.87 0.85 0.87 0.87 0.83 0.75 0.66 0.61 0.58 0.58 0.55 0.54 0.54
0.64 0.64 0.63 0.63 0.62 0.61 0.62 0.62 0.60 0.59 0.58 0.57 0.55 0.53 0.53 0.52 0.51 0.51 0.50 0.49 0.50 0.51 0.54 0.57 0.59 0.63 0.67 0.70 0.72 0.73 0.72 0.71 0.72 0.71 0.68 0.66 0.66 0.67 0.70 0.75 0.79 0.83 0.85 0.86 0.86 0.87 0.87 0.87 0.88 0.86 0.86 0.88 0.89 0.87 0.79 0.70 0.62 0.58 0.58 0.58 0.56 0.54 0.55
0.63 0.63 0.61 0.61 0.59 0.58 0.58 0.57 0.56 0.56 0.54 0.53 0.51 0.50 0.49 0.48 0.47 0.46 0.46 0.46 0.47 0.47 0.48 0.50 0.52 0.54 0.57 0.62 0.68 0.73 0.73 0.71 0.70 0.70 0.65 0.62 0.63 0.66 0.72 0.75 0.77 0.80 0.81 0.82 0.82 0.83 0.84 0.84 0.84 0.85 0.87 0.86 0.83 0.79 0.71 0.64 0.62 0.61 0.59 0.58 0.54 0.52 0.51
0.59 0.58 0.58 0.58 0.57 0.55 0.54 0.54 0.53 0.52 0.50 0.49 0.47 0.45 0.45 0.44 0.43 0.41 0.40 0.40 0.42 0.43 0.44 0.46 0.47 0.49 0.52 0.56 0.58 0.61 0.65 0.68 0.70 0.70 0.69 0.65 0.67 0.72 0.74 0.75 0.76 0.77 0.78 0.79 0.79 0.79 0.78 0.77 0.77 0.79 0.82 0.81 0.80 0.73 0.64 0.59 0.58 0.57 0.56 0.54 0.52 0.50 0.49
Wind_Speed
8 7 6 6 5 4 4 4 4 4 4 4 4 4 5 5 6 6 7 7 8 9 9 10 10 11 11 11 11 11 10 11 11 11 12 12 11 11 10 10 9 9 9 9 9 8 7 6 6 6 6 6 5 5 4 4 4 4 4 4 5 5 6
8 7 6 6 5 5 4 4 4 4 4 4 4 5 5 5 5 6 6 7 8 9 9 10 10 10 11 11 11 11 11 11 12 12 12 12 12 12 11 10 9 9 9 9 9 8 7 6 6 6 6 5 5 5 5 4 4 5 4 5 5 5 5
8 7 6 6 5 5 4 4 4 4 4 4 5 5 4 4 5 5 6 6 7 8 9 9 10 10 11 11 11 11 11 11 11 12 12 12 12 12 12 11 10 9 9 9 9 8 7 6 6 6 6 6 5 5 5 5 5 4 4 4 5 5 5
8 7 6 6 6 5 5 4 4 5 5 5 5 5 5 4 4 5 5 5 7 8 8 9 10 11 11 11 11 10 10 11 11 11 11 11 12 12 12 12 11 11 10 10 9 9 8 6 6 6 6 6 5 4 5 5 5 5 4 4 4 5 4
8 8 7 7 6 6 5 5 5 5 6 6 6 6 6 5 5 5 5 5 6 7 8 8 9 10 10 10 10 10 10 10 10 10 10 11 11 12 12 12 11 11 11 11 10 9 8 8 7 6 6 6 5 4 5 5 5 5 5 5 4 4 3
9 8 8 7 7 6 6 6 5 5 5 6 7 7 7 7 6 6 5 5 6 7 7 7 7 8 9 9 9 9 9 9 9 10 10 10 11 11 11 11 11 11 11 11 10 9 8 8 8 7 6 6 5 5 6 6 6 5 4 4 4 3 3
9 9 8 8 7 7 6 6 5 5 5 5 6 7 7 7 7 6 6 5 6 7 7 7 7 8 8 8 8 8 8 9 9 9 9 10 10 10 10 10 10 11 11 10 10 10 9 8 8 7 6 6 6 6 7 7 6 5 4 4 3 3 2
9 9 8 7 7 7 6 6 5 5 5 5 5 6 6 7 7 6 6 5 6 7 7 8 8 8 8 8 8 8 8 8 8 8 8 9 9 9 9 9 9 10 10 10 10 10 10 9 8 8 7 6 6 7 7 7 6 6 5 4 3 3 2
10 9 8 7 7 7 6 6 5 5 5 5 5 5 5 6 6 6 6 6 6 6 7 8 8 8 8 8 8 8 7 7 7 7 7 7 8 8 8 7 8 8 9 10 11 11 11 10 9 9 8 7 7 7 7 7 6 6 6 5 4 4 3
10 9 8 8 7 7 7 6 5 5 4 4 4 4 5 5 5 5 5 5 6 6 7 7 7 8 8 8 8 8 7 7 7 7 7 7 7 7 7 6 6 7 7 9 10 11 11 10 9 9 9 8 7 7 7 8 7 7 7 6 6 5 5
11 10 9 9 8 8 7 6 5 5 4 4 4 4 5 5 5 5 5 5 6 6 6 6 7 7 7 7 8 8 8 7 7 7 6 6 6 6 6 6 5 5 6 7 9 10 10 10 9 9 9 9 8 8 7 7 8 8 8 8 7 7 6
11 10 10 9 9 9 8 7 6 6 5 5 5 5 5 5 5 5 5 6 6 6 6 6 6 6 7 7 7 7 7 7 7 7 7 7 7 7 7 6 6 5 5 6 7 8 9 10 9 10 10 10 9 9 8 7 8 9 9 9 9 8 8
12 11 10 10 9 9 9 8 7 7 6 6 6 6 6 6 5 6 6 7 7 7 6 6 6 6 6 7 7 7 7 7 7 7 7 7 7 7 8 7 7 6 6 6 6 6 7 8 8 9 10 11 10 10 9 8 8 9 9 9 10 9 9
12 12 11 10 10 10 9 8 7 7 6 6 6 6 6 6 6 6 7 7 7 7 7 7 6 6 6 6 6 6 7 7 7 7 7 7 7 7 8 7 7 7 7 6 6 6 6 7 7 7 9 10 11 10 10 9 8 9 9 9 10 9 9
13 12 11 11 10 10 9 8 7 7 6 6 7 6 6 6 6 7 8 7 7 7 7 7 6 6 6 6 5 6 6 6 6 6 6 6 6 7 7 7 7 7 7 7 7 7 7 7 8 8 8 9 10 11 10 9 8 9 9 10 10 10 9
13 12 12 11 11 10 9 8 7 7 7 7 7 7 6 6 6 7 8 7 7 7 7 7 7 6 6 6 6 6 6 6 6 6 6 6 6 6 6 7 7 7 7 7 7 8 8 8 8 8 8 9 10 11 11 11 10 10 10 10 11 11 11
14 13 12 12 11 10 9 8 7 7 7 7 7 7 6 6 6 6 7 8 7 7 7 7 7 7 7 7 7 6 6 6 6 6 6 6 6 6 6 7 7 7 8 8 8 8 8 9 9 9 9 9 10 11 12 12 11 11 11 11 12 12 12
14 13 13 12 11 10 9 9 8 8 8 8 7 8 7 7 7 7 7 8 8 8 7 7 7 7 7 7 7 7 7 7 7 7 7 7 6 6 6 6 7 8 8 8 9 9 9 9 10 10 10 11 11 11 12 12 12 12 12 12 13 13 13
14 14 13 13 12 11 10 9 9 9 9 8 8 8 8 9 8 8 8 8 8 8 8 8 8 8 7 8 8 8 8 8 8 8 8 8 8 7 7 8 8 8 9 9 10 10 10 10 11 11 12 12 12 12 13 13 13 13 13 13 14 14 15
14 14 14 13 12 11 11 10 10 9 9 9 8 8 9 9 10 9 9 9 9 9 9 9 9 9 9 9 9 9 9 9 9 9 9 9 9 9 9 10 10 10 11 11 12 12 12 12 12 12 13 13 14 14 14 14 14 14 14 15 15 16 16
14 14 14 13 13 12 11 10 9 9 8 9 9 9 9 10 10 10 11 11 10 10 10 10 11 11 11 10 11 11 11 11 11 11 11 11 11 11 11 12 12 13 13 13 13 14 14 14 13 14 14 15 14 15 15 15 15 15 16 16 17 17 17
14 14 14 14 13 12 11 10 9 9 9 9 9 10 10 10 10 11 12 12 12 12 12 12 12 12 12 12 12 13 13 13 13 13 13 14 13 13 14 14 14 15 15 15 16 16 16 16 16 16 16 16 16 16 16 17 17 17 17 17 18 18 18
14 14 14 14 13 12 11 10 10 9 9 10 10 10 11 11 11 12 12 13 13 14 13 13 13 14 14 14 14 14 15 15 15 15 15 16 16 16 16 16 17 17 17 17 18 18 18 19 19 18 18 18 18 17 17 18 19 19 19 19 20 19 19
13 14 14 13 13 12 12 11 11 11 11 11 10 11 12 13 13 13 14 14 15 15 15 15 15 16 16 16 16 16 17 17 17 17 17 17 18 18 18 19 19 19 19 19 20 20 20 21 21 21 21 20 20 20 20 20 20 21 21 21 22 22 22
13 14 15 14 13 13 13 13 12 12 12 12 12 12 13 14 14 14 15 16 16 16 17 17 18 18 18 18 17 18 18 18 19 19 19 20 20 20 20 21 21 21 21 21 21 22 22 22 22 22 22 22 23 23 23 23 23 23 23 23 24 24 24
13 14 14 15 14 14 14 14 14 14 14 14 14 14 14 15 15 15 15 16 16 17 17 18 19 20 20 20 20 20 20 20 20 20 21 21 22 22 22 22 22 22 23 23 23 23 23 23 23 23 23 23 24 25 25 26 26 26 26 26 26 26 26
13 13 14 14 15 15 14 14 14 15 15 15 15 16 16 16 17 17 17 17 18 18 18 19 20 21 22 22 23 23 22 22 22 22 22 22 22 23 23 23 24 24 25 25 25 25 25 25 25 24 24 25 25 26 27 27 28 28 28 28 28 27 27
13 14 14 14 15 15 15 15 15 15 15 16 16 16 17 17 18 19 19 20 21 21 21 21 21 22 22 23 24 24 25 25 25 25 24 24 24 24 25 25 25 26 26 26 27 27 27 27 27 27 27 28 28 29 29 29 29 29 29 29 28 28 27
15 15 16 16 16 16 16 16 16 17 17 17 17 17 18 18 19 19 20 21 22 23 24 24 24 24 24 24 24 25 26 27 27 27 27 26 26 27 27 27 28 28 28 28 28 28 28 28 29 29 29 29 30 30 30 30 30 29 29 29 28 27 27
16 17 17 17 17 17 18 18 18 18 19 19 19 19 20 20 21 21 22 22 23 24 25 25 26 26 27 27 27 27 28 29 30 30 30 29 29 30 30 30 30 30 30 30 30 30 29 29 30 31 30 30 30 30 30 30 30 28 28 27 27 27 26
18 18 19 19 19 20 20 20 21 21 21 21 21 22 22 23 24 24 25 25 26 26 27 27 27 28 29 29 30 30 31 31 31 32 32 32 33 33 33 33 33 33 33 32 32 32 31 31 31 31 31 31 31 31 30 30 29 28 27 26 26 26 25
20 20 20 21 21 22 23 23 23 24 24 24 25 25 26 26 27 27 28 28 28 29 29 29 30 31 31 32 33 33 34 34 34 34 35 35 35 36 36 36 35 35 35 35 35 34 34 33 33 32 33 32 32 31 31 31 30 28 27 26 25 25 24
22 22 23 24 24 25 25 26 26 27 27 27 28 29 29 29 30 30 31 31 31 31 31 31 32 33 34 34 35 35 36 36 36 37 37 37 38 38 38 37 37 37 37 36 36 36 35 35 34 34 35 34 34 33 33 32 30 28 27 26 25 24 24
24 25 26 26 27 28 28 29 29 30 30 31 31 32 32 32 33 33 33 33 34 34 34 34 35 36 37 38 38 38 38 39 39 39 39 39 39 39 39 39 38 38 37 37 37 37 36 36 36 36 35 34 34 34 33 32 30 29 27 27 25 24 24
26 27 28 29 30 30 31 31 32 32 33 34 34 34 35 35 35 36 36 36 36 37 37 37 37 38 39 40 41 41 41 41 41 41 42 42 41 41 41 40 39 39 39 38 39 39 38 38 38 37 35 34 33 33 31 30 29 28 27 27 26 25 24
28 29 30 31 31 32 33 33 34 34 35 35 36 36 37 37 37 38 38 39 39 39 39 40 40 40 41 43 43 44 44 44 43 43 43 44 43 42 42 41 40 39 39 39 40 40 40 39 39 38 36 34 32 32 30 28 28 28 27 27 26 25 25
30 31 31 32 32 33 34 34 35 35 36 36 37 37 38 38 39 40 40 41 41 41 42 43 43 44 44 45 45 45 45 45 45 45 45 45 44 43 42 41 40 39 39 39 39 39 39 38 38 36 34 32 31 31 30 28 28 29 28 27 27 26 26
Wind_Direction
195 199 202 202 205 212 216 219 220 218 216 215 216 220 223 225 223 219 217 216 219 221 218 216 215 215 215 217 219 222 225 225 225 226 226 226 228 229 230 232 238 235 227 229 233 232 233 239 242 242 246 254 259 263 263 263 271 277 281 284 287 289 289
201 201 204 209 214 221 223 223 226 227 226 224 221 221 221 223 221 217 216 216 219 221 220 218 218 218 218 219 222 225 228 228 228 229 228 229 230 230 229 231 236 233 229 233 235 234 234 231 234 239 239 243 251 257 258 264 274 277 281 287 293 294 291
198 201 205 211 217 221 221 220 226 232 232 228 223 220 219 219 219 217 217 217 216 217 218 218 218 219 219 220 222 226 227 227 228 229 229 231 231 231 230 231 233 230 229 236 236 233 233 232 232 234 233 233 239 247 251 259 266 269 277 285 291 293 290
200 206 208 212 215 216 216 222 232 237 237 230 222 220 220 219 219 217 216 214 211 213 217 218 217 217 219 221 224 226 226 227 227 227 229 231 232 233 233 233 233 230 227 230 229 226 228 232 232 234 234 231 233 241 244 249 255 259 270 280 290 295 291
209 212 212 212 213 215 222 231 239 242 239 233 227 225 226 225 223 217 212 209 205 210 217 218 216 216 217 221 224 226 227 226 225 226 228 230 232 234 233 233 233 230 228 227 224 223 227 227 224 225 224 224 233 241 237 238 248 258 270 280 291 297 291
213 213 213 214 218 222 228 233 239 242 238 233 231 229 228 228 226 218 212 210 208 210 216 218 217 215 214 217 221 224 226 226 227 228 229 230 232 233 231 231 231 229 229 228 225 225 229 224 217 216 218 223 229 229 232 236 240 250 265 276 287 294 288
213 215 218 221 226 228 231 234 237 238 236 233 229 227 225 224 225 221 215 218 220 219 220 220 217 212 211 214 216 220 225 229 230 229 228 228 229 229 229 229 229 228 227 228 228 226 225 220 214 212 215 227 231 225 231 236 235 242 254 261 274 286 282
214 217 219 224 226 226 230 233 234 238 238 232 226 224 220 218 224 226 223 225 226 226 224 221 216 212 212 213 215 219 224 226 226 223 221 221 222 223 225 227 228 228 229 229 227 226 224 220 216 213 214 225 234 234 235 234 237 246 247 248 262 273 275
215 216 218 220 221 222 228 230 232 238 238 232 228 223 219 219 224 227 225 222 221 220 218 215 214 215 216 216 217 218 217 218 217 213 213 214 214 214 216 220 225 228 230 228 223 224 226 224 222 221 221 223 224 228 233 231 236 243 240 246 259 261 268
215 218 220 221 219 221 226 227 230 235 231 226 225 223 222 223 224 223 216 211 209 207 206 207 209 212 214 215 215 212 209 209 208 207 208 208 208 209 209 216 224 229 231 227 222 224 226 226 227 228 228 228 218 217 226 228 233 238 237 245 257 258 262
219 220 221 222 222 222 224 226 231 236 232 227 226 226 226 225 224 220 208 202 199 196 197 199 202 205 209 210 210 208 206 206 206 207 210 209 210 212 213 218 226 228 230 227 224 226 227 227 229 230 230 231 226 225 228 228 235 241 240 244 254 260 260
220 221 223 224 225 224 225 229 236 241 240 237 233 227 222 221 221 213 201 198 197 195 198 201 204 208 210 210 210 210 211 212 211 210 212 213 214 216 217 220 224 223 223 224 222 225 227 230 234 236 234 234 236 237 233 232 241 245 243 245 253 258 259
222 224 226 226 226 226 228 232 238 241 240 235 228 222 219 217 215 208 201 199 199 200 203 206 211 214 213 213 214 214 216 218 216 214 216 220 220 219 219 221 223 222 220 218 218 221 229 236 243 244 240 240 241 239 235 238 248 250 246 248 253 256 257
223 226 228 228 227 227 230 233 236 237 236 229 220 216 219 218 213 208 203 202 202 203 205 207 211 214 212 212 215 215 216 217 218 219 222 226 226 224 222 222 224 227 226 223 224 231 239 245 250 252 250 246 242 240 240 244 251 252 251 251 252 254 253
224 226 226 227 226 225 228 230 231 232 231 223 214 211 215 215 211 205 203 204 205 205 208 209 210 210 211 212 214 215 215 214 218 221 223 225 226 224 222 221 225 232 234 233 237 245 252 254 255 257 256 250 243 242 247 250 251 251 250 249 250 252 253
223 224 223 223 222 223 225 226 227 226 221 214 209 206 209 208 204 202 203 206 209 210 213 213 212 211 212 214 213 213 214 214 216 218 217 217 220 222 220 221 227 235 239 243 248 254 257 259 258 256 254 250 245 245 250 254 254 251 248 250 251 252 254
222 221 221 221 219 220 222 224 224 219 211 208 206 205 206 203 199 201 206 209 211 214 214 213 212 210 210 211 210 210 212 215 216 216 214 215 219 222 222 224 230 237 242 246 250 254 257 259 259 256 254 253 252 253 256 257 258 257 253 253 255 254 254
220 220 220 219 217 218 221 222 222 216 209 207 207 206 207 207 204 205 212 214 213 215 216 213 211 210 210 210 209 209 212 217 219 218 218 221 224 226 228 230 234 239 242 245 249 254 257 260 259 257 257 258 258 260 260 258 260 260 257 255 256 256 255
220 220 220 218 216 218 221 221 219 215 210 208 209 209 210 213 213 212 216 218 217 220 224 221 218 218 219 218 217 217 218 220 223 225 227 231 234 238 241 243 245 247 248 250 253 257 259 259 259 259 259 261 263 263 261 259 261 262 260 258 258 258 257
219 218 218 217 216 218 219 218 216 213 210 209 213 215 215 218 219 217 218 221 223 226 230 228 226 226 227 227 226 225 225 226 229 232 236 239 242 247 251 253 255 256 256 257 259 260 261 261 261 261 261 263 265 265 264 263 263 264 262 261 260 259 259
217 216 217 216 216 216 215 214 214 213 212 214 220 223 220 220 222 223 225 227 228 231 234 234 232 231 231 231 230 232 233 233 235 238 240 244 248 252 255 257 259 260 260 260 261 262 263 263 264 263 262 264 264 265 266 266 266 264 263 262 261 261 262
216 218 218 216 216 216 215 216 216 217 219 224 229 229 226 226 227 229 232 233 234 237 241 243 240 237 237 238 238 239 240 240 241 243 245 248 252 256 258 260 261 262 262 261 261 262 263 265 267 266 264 263 264 264 266 267 267 266 265 264 263 263 263
216 218 216 215 215 217 219 220 221 223 226 230 234 234 232 234 236 236 237 238 240 242 246 247 244 242 243 245 246 246 245 246 247 249 250 252 255 258 261 262 263 263 263 262 262 263 263 265 267 267 265 263 263 264 266 267 268 268 267 266 264 264 264
219 218 215 214 213 215 220 225 229 232 232 234 238 239 237 239 242 243 242 243 244 246 248 248 247 247 249 250 250 250 249 249 250 252 253 255 257 259 262 264 265 264 264 265 265 265 265 266 266 266 266 265 264 265 267 267 268 269 269 267 265 264 265
221 220 222 225 225 224 227 233 238 239 239 240 243 244 243 243 246 246 245 246 247 248 249 250 251 252 252 252 251 251 252 252 253 254 255 257 259 261 263 265 266 266 266 266 267 268 268 267 267 266 266 267 267 268 269 269 269 269 269 268 266 265 264
227 229 233 237 237 237 240 244 245 246 246 247 248 249 248 247 248 249 249 249 249 250 251 253 253 253 253 253 252 252 254 255 256 257 258 260 262 263 265 266 267 268 268 268 268 268 268 268 267 266 266 267 269 270 270 271 270 270 270 268 266 265 264
236 240 243 243 242 244 249 251 251 252 253 253 254 254 253 252 252 252 253 253 255 256 256 257 256 255 253 253 252 253 255 255 256 258 259 262 264 265 266 267 267 268 269 270 270 270 269 268 267 266 268 269 271 272 272 272 272 271 270 269 266 264 264
242 245 247 247 246 248 251 253 254 255 256 256 257 257 257 258 257 257 258 258 258 259 260 259 259 258 257 255 254 255 255 256 256 257 259 262 264 266 267 267 267 268 269 270 270 269 270 268 266 267 270 272 273 273 273 273 273 272 271 269 266 264 263
247 248 249 250 250 251 253 254 255 256 256 257 258 259 259 260 261 262 263 262 261 262 262 262 262 261 260 259 259 259 259 258 258 259 260 262 265 267 268 269 269 268 268 269 269 269 270 269 268 269 271 273 274 275 274 273 273 271 270 267 263 262 260
252 253 253 253 254 254 255 256 257 258 258 259 261 262 263 263 264 265 265 265 264 265 265 264 264 263 262 262 263 264 264 263 262 261 262 264 266 269 270 271 270 269 268 269 270 270 270 269 269 270 271 272 273 274 274 273 271 270 268 264 260 258 257
255 256 256 256 257 257 258 259 260 261 261 261 262 263 264 264 265 266 267 267 267 267 266 265 264 264 265 265 265 267 268 267 265 264 265 266 267 269 271 271 270 269 269 270 271 270 269 268 269 270 270 270 270 270 272 272 269 267 265 262 258 257 257
257 258 259 260 260 261 262 263 263 264 264 264 264 264 264 264 265 266 267 268 268 268 267 266 265 265 266 266 267 268 269 268 267 267 267 268 268 269 271 272 271 270 269 269 270 269 268 267 268 268 269 269 268 268 269 268 265 262 261 259 258 258 259
260 261 262 263 264 264 265 265 266 266 266 266 266 266 266 266 266 267 267 267 268 267 267 267 267 267 267 267 268 269 269 269 268 268 268 268 269 269 271 272 272 270 268 268 268 267 267 266 267 268 269 269 269 268 267 264 260 258 257 256 256 257 259
263 264 264 266 266 267 267 267 268 268 268 268 269 269 268 268 268 269 268 268 268 267 267 268 268 268 269 269 268 269 269 269 269 269 269 269 269 270 271 272 271 270 268 267 266 266 266 266 267 269 269 269 269 268 264 259 256 254 253 253 254 255 258
266 266 267 268 268 268 269 269 269 269 270 270 271 271 271 271 271 271 271 270 269 269 268 269 270 270 269 269 269 269 270 270 270 270 270 270 271 271 271 271 270 269 267 266 265 266 266 266 267 268 268 267 267 264 259 255 252 250 250 251 251 254 258
268 269 270 270 271 271 271 271 271 272 272 273 273 273 273 273 273 273 272 272 271 270 270 270 270 271 271 270 270 269 269 270 270 270 270 270 271 271 271 270 269 268 266 266 266 266 267 266 266 266 265 264 262 258 255 252 249 248 248 249 250 253 258
271 271 272 272 272 273 273 273 273 273 274 274 274 275 275 275 274 274 274 273 273 272 272 272 272 272 272 272 271 269 269 269 269 269 270 270 270 269 269 268 267 266 266 266 267 267 266 266 265 264 262 259 257 254 252 250 248 247 247 248 250 254 257